Location: Caltech
(34.1382°N, 118.1253°W)
Time: 06:15:30
(UTC-08:00)

A-11 Canister half - All Passes

Search period start: 25 January 2015 00:00
Search period end: 04 February 2015 00:00
Orbit: 1516 x 1684 km, 47.2° (Epoch: 24 January)

Date Brightness Start Highest point End Pass type
(mag) Time Alt. Az. Time Alt. Az. Time Alt. Az.
25 Jan - 00:20:23 10° WNW 00:28:16 29° SW 00:36:06 10° S night (unlit)
25 Jan - 13:30:09 10° S 13:37:50 30° SE 13:45:38 10° ENE daylight
25 Jan - 15:32:47 10° WSW 15:42:09 82° NW 15:51:27 10° NE daylight
25 Jan - 17:39:31 10° W 17:48:05 40° NNW 17:56:43 10° NE visible
25 Jan - 19:46:26 10° NW 19:55:00 40° NNE 20:03:47 10° E visible
25 Jan - 21:51:37 10° NW 22:01:00 82° NE 22:10:41 10° ESE visible
25 Jan - 23:57:21 10° WNW 00:05:26 31° SW 00:13:30 10° S night (unlit)
26 Jan - 13:07:34 10° S 13:15:00 28° SE 13:22:35 10° ENE daylight
26 Jan - 15:09:53 10° SW 15:19:16 86° NW 15:28:34 10° NE daylight
26 Jan - 17:16:30 10° W 17:25:07 41° NNW 17:33:45 10° NE daylight
26 Jan - 19:23:30 10° NW 19:32:02 39° NNE 19:40:43 10° E visible
26 Jan - 21:28:45 10° NW 21:38:06 78° NE 21:47:44 10° ESE visible
26 Jan - 23:34:21 10° WNW 23:42:35 34° SW 23:50:51 10° S night (unlit)
27 Jan - 12:45:02 10° S 12:52:11 26° SE 12:59:31 10° ENE daylight
27 Jan - 14:46:59 10° SW 14:56:24 90° ESE 15:05:41 10° NE daylight
27 Jan - 16:53:28 10° W 17:02:09 42° NNW 17:10:49 10° NE daylight
27 Jan - 19:00:34 10° WNW 19:09:03 39° N 19:17:41 10° ENE visible
27 Jan - 21:05:53 10° NW 21:15:12 74° NNE 21:24:47 10° ESE visible
27 Jan - 23:11:21 10° WNW 23:19:44 36° SW 23:28:12 10° SSE visible
28 Jan - 12:22:31 10° S 12:29:21 24° SE 12:36:25 10° ENE daylight
28 Jan - 14:24:06 10° SW 14:33:31 86° SE 14:42:48 10° NE daylight
28 Jan - 16:30:26 10° W 16:39:11 43° NNW 16:47:53 10° NE daylight
28 Jan - 18:37:37 10° WNW 18:46:04 38° N 18:54:38 10° ENE visible
28 Jan - 20:43:00 10° NW 20:52:17 71° NNE 21:01:50 10° ESE visible
28 Jan - 22:48:22 10° WNW 22:56:54 39° SW 23:05:32 10° SSE visible
29 Jan - 12:00:03 10° S 12:06:32 22° SE 12:13:17 10° E daylight
29 Jan - 14:01:13 10° SW 14:10:39 81° SE 14:19:55 10° NE daylight
29 Jan - 16:07:24 10° W 16:16:14 44° NNW 16:24:58 10° NE daylight
29 Jan - 18:14:39 10° WNW 18:23:04 37° N 18:31:36 10° ENE visible
29 Jan - 20:20:08 10° NW 20:29:23 67° NNE 20:38:51 10° ESE visible
29 Jan - 22:25:25 10° WNW 22:34:04 42° SW 22:42:49 10° SSE visible
30 Jan - 11:37:38 10° SSE 11:43:42 20° SE 11:50:07 10° E daylight
30 Jan - 13:38:22 10° SW 13:47:47 77° SE 13:57:02 10° NE daylight
30 Jan - 15:44:23 10° W 15:53:16 46° NNW 16:02:04 10° NE daylight
30 Jan - 17:51:41 10° WNW 18:00:05 37° N 18:08:34 10° ENE visible
30 Jan - 19:57:16 10° NW 20:06:28 64° NNE 20:15:53 10° ESE visible
30 Jan - 22:02:28 10° WNW 22:11:13 45° SW 22:20:06 10° SSE visible
31 Jan - 11:15:17 10° SSE 11:20:52 18° SE 11:26:53 10° E daylight
31 Jan - 13:15:31 10° SW 13:24:55 73° SE 13:34:09 10° ENE daylight
31 Jan - 15:21:22 10° W 15:30:19 47° NNW 15:39:09 10° NE daylight
31 Jan - 17:28:43 10° WNW 17:37:06 37° N 17:45:32 10° ENE visible
31 Jan - 19:34:23 10° NW 19:43:32 61° NNE 19:52:54 10° ESE visible
31 Jan - 21:39:32 10° WNW 21:48:22 48° SW 21:57:22 10° SSE visible
01 Feb - 10:53:00 10° SSE 10:58:02 16° SE 11:03:35 10° E daylight
01 Feb - 12:52:41 10° SW 13:02:03 69° SE 13:11:15 10° ENE daylight
01 Feb - 14:58:21 10° W 15:07:22 49° NNW 15:16:15 10° NE daylight
01 Feb - 17:05:44 10° WNW 17:14:06 36° N 17:22:31 10° ENE daylight
01 Feb - 19:11:30 10° NW 19:20:37 59° NNE 19:29:54 10° ESE visible
01 Feb - 21:16:36 10° WNW 21:25:32 52° SW 21:34:37 10° SSE visible
02 Feb - 10:30:48 10° SSE 10:35:12 15° SE 10:40:12 10° E daylight
02 Feb - 12:29:51 10° SW 12:39:12 65° SE 12:48:22 10° ENE daylight
02 Feb - 14:35:19 10° W 14:44:25 51° NNW 14:53:22 10° NE daylight
02 Feb - 16:42:44 10° WNW 16:51:07 36° N 16:59:30 10° ENE daylight
02 Feb - 18:48:38 10° NW 18:57:42 56° NNE 19:06:54 10° ESE visible
02 Feb - 20:53:42 10° WNW 21:02:41 55° SW 21:11:51 10° SSE visible
02 Feb - 23:03:56 10° WSW 23:06:37 11° SW 23:08:29 10° SW visible
03 Feb - 10:08:46 10° SSE 10:12:22 13° SE 10:16:40 10° E daylight
03 Feb - 12:07:03 10° SSW 12:16:21 61° SE 12:25:28 10° ENE daylight
03 Feb - 14:12:18 10° W 14:21:29 53° NNW 14:30:29 10° NE daylight
03 Feb - 16:19:45 10° WNW 16:28:07 36° N 16:36:30 10° ENE daylight
03 Feb - 18:25:45 10° NW 18:34:45 54° NNE 18:43:54 10° ESE visible
03 Feb - 20:30:47 10° WNW 20:39:50 59° SW 20:49:03 10° SSE visible
03 Feb - 22:39:55 10° W 22:43:47 12° SW 22:46:56 10° SW visible
